[[{"header":{"parameterUnit":"m.s-1","parameterCategory":1,"la1":30.2991,"la2":30.254,"lo1":-89.0895,"lo2":-89.0444,"dy":0.0017,"dx":0.0017,"nx":28,"ny":28,"refTime":"2025-04-08T03:00:00:Z","depth":0,"parameterNumber":2,"parameterNumberName":"U-component_of_WINDS"},"data":[0,0,0,0,0,0,0,0,0,0,0,0,0,0,0,0,0,0,0,0,0,0,0,0,0,0,0,0,0,0,0,0,0,0,0,0,0,0,0,0,0,0,0,0,0,0,0,0,0,0,0,0,0,0,0,0,0,0,1.0098,1.0098,0,1.0114,1.0115,1.0115,1.0133,1.0133,1.0134,1.0134,1.0149,1.015,1.015,0,0,0,0,0,0,0,0,0,0,0,0,0,1.0083,1.0083,1.0098,1.0098,1.0099,1.0114,1.0115,1.0115,1.0133,1.0133,1.0134,1.0134,1.0149,1.015,1.015,0,0,0,0,0,0,0,0,0,0,0,0,0,1.0093,1.0083,1.0098,1.011,1.0111,1.0114,1.0115,1.0115,1.0133,1.0133,1.0134,1.0134,1.0149,1.015,1.015,1.0143,0,0,1.0151,1.0151,0,0,0,0,0,0,0,0,1.0093,1.0094,1.0108,1.0109,1.011,1.0122,1.0115,1.0124,1.0133,1.0125,1.0134,1.0134,1.014,1.0141,1.0143,1.0144,1.0144,1.0151,1.0151,1.0151,1.0151,0,0,0,0,0,0,0,1.0092,1.0093,1.0105,1.0108,1.0109,1.0114,1.0116,1.0117,1.013,1.0125,1.0127,1.0128,1.0141,1.0143,1.0144,1.0145,1.0151,1.0151,1.0151,1.0151,1.0141,1.0141,0,0,0,0,0,0,1.009,1.0092,1.0104,1.0105,1.0102,1.0114,1.0116,1.0118,1.013,1.0132,1.0128,1.0129,1.0142,1.0143,1.0144,1.0137,1.0151,1.0151,1.0151,1.0142,1.0141,1.0141,0,0,0,0,0,0,1.0089,1.009,1.0103,1.0099,1.0101,1.0114,1.0116,1.0118,1.012,1.0132,1.0134,1.0128,1.0143,1.0144,1.0143,1.0138,1.0151,1.0151,1.0142,1.0141,1.0141,1.0122,0,0,0,0,0,0,1.0089,1.009,1.0088,1.0099,1.0101,1.0102,1.0115,1.0118,1.0121,1.0122,1.0132,1.0134,1.0143,1.0143,1.0144,1.0138,1.0152,1.0142,1.0142,1.0141,1.0123,1.0121,1.0119,0,0,0,0,0,1.0088,1.0081,1.0087,1.0089,1.0098,1.0102,1.0103,1.0114,1.012,1.0118,1.0125,1.0134,1.0139,1.0143,1.0144,1.0138,1.0143,1.0142,1.0141,1.0124,1.0122,1.0119,0,0,0,0,0,0,1.0068,1.0083,1.009,1.0087,1.0093,1.0105,1.0102,1.011,1.0114,1.0116,1.0129,1.0131,1.0128,1.0134,1.0138,1.0133,1.0142,1.0141,1.0129,1.0127,1.0124,1.0123,1.0152,0,0,0,0,0,1.0063,1.0065,1.0078,1.0074,1.0077,1.0089,1.0091,1.0099,1.0105,1.0108,1.0116,1.0122,1.0125,1.0126,1.0129,1.0125,1.0127,1.0122,1.012,1.0118,1.0117,1.0115,1.0113,1.0138,1.0138,1.0138,0,0,1.0053,1.0062,1.0062,1.007,1.0076,1.0077,1.0091,1.0092,1.0093,1.0108,1.0108,1.0114,1.0122,1.0119,1.0118,1.0123,1.0111,1.0117,1.0115,1.0115,1.0114,1.0111,1.0109,1.0137,1.0137,1.0137,0,0,1.0036,1.0043,1.004,1.0046,1.0055,1.0063,1.0063,1.0074,1.0079,1.0079,1.0091,1.0092,1.0097,1.0102,1.0105,1.0092,1.01,1.0093,1.0081,1.0079,1.0077,1.0075,1.007,1.0068,1.0092,1.0092,1.0092,0,1.0022,1.0025,1.0038,1.0038,1.0041,1.0056,1.0054,1.0059,1.0068,1.007,1.0076,1.0083,1.0089,1.0088,1.0085,1.0087,1.0087,1.0091,1.0076,1.0075,1.0073,1.0068,1.0066,1.0091,1.0091,1.0091,1.0091,0,1.0007,1.0009,1.0006,1.0015,1.0019,1.0017,1.003,1.0032,1.004,1.0048,1.0048,1.0057,1.0062,1.0063,1.0071,1.0063,1.0066,1.0074,1.0083,1.007,1.0065,1.0063,1.0089,1.009,1.009,1.009,0,0,0.9975,0.9993,0.9992,0.9996,1.0008,1.001,1.001,1.0016,1.0017,1.0024,1.0024,1.0028,1.0036,1.004,1.0048,1.0047,1.0035,1.0055,1.0055,1.005,1.0027,1.002,1.0018,1.0041,1.0041,1.0041,1.0026,0,0.9959,0.996,0.9972,0.9969,0.9971,0.9987,0.9987,0.9994,1.0002,1.0005,1.0013,1.0016,1.0026,1.0029,1.0028,1.0036,1.003,1.0038,1.0041,1.0041,1.0037,1.0015,1.0008,0.9994,1.0025,1.0024,1.0024,0,0.9939,0.9945,0.9943,0.9956,0.9957,0.9957,0.9964,0.9966,0.9975,0.9981,0.9986,0.9996,0.9997,1.0008,1.0009,1.0014,1.0016,1.0021,1.0021,1.002,1.003,1.0013,0.9989,0.9987,1.0022,1.0022,1.0022,0,0.9915,0.9923,0.9922,0.9926,0.9941,0.9941,0.9947,0.9957,0.996,0.9966,0.9968,0.9975,0.9978,0.9982,0.9994,1.0,0.9994,1.0005,0.9998,0.9998,0.9995,0.9994,0.997,0.9998,0.9999,0.9999,0.9999,0,0.9894,0.9892,0.9912,0.9911,0.9909,0.9924,0.9922,0.993,0.9939,0.994,0.9954,0.9955,0.9971,0.9974,0.9984,0.9983,0.9985,0.9989,0.9992,0.9987,0.9987,0.9988,0.9988,0.9998,0.9998,0.9998,0.9998,0,0.9866,0.9879,0.988,0.9895,0.9899,0.9896,0.9909,0.991,0.9919,0.9921,0.9922,0.9937,0.9941,0.9954,0.9961,0.9968,0.9964,0.997,0.9961,0.9962,0.9955,0.9955,0.9928,0.9926,0.9957,0.9957,0.9957,0,0.9851,0.9849,0.9865,0.9867,0.9873,0.9876,0.988,0.9896,0.9899,0.991,0.9909,0.9915,0.992,0.9926,0.9937,0.9943,0.9948,0.9938,0.9949,0.9944,0.9946,0.9946,0.9946,0.9935,0.9935,0.9935,0.9934,0,0.9822,0.983,0.9834,0.9842,0.9846,0.9853,0.986,0.9861,0.9879,0.9881,0.9886,0.9891,0.9899,0.9904,0.9912,0.9919,0.9929,0.9932,0.993,0.9925,0.9919,0.9921,0.9954,0.9931,0.9932,0.9932,0.9932,0.9932,0.9799,0.9799,0.981,0.9815,0.9823,0.983,0.9831,0.9842,0.9846,0.9854,0.9864,0.9868,0.9878,0.989,0.9896,0.9899,0.9905,0.9903,0.9902,0.9901,0.9899,0.9921,0.9901,0.9901,0.9901,0.9901,0.9901,0,0.9771,0.9779,0.9784,0.9794,0.9799,0.981,0.9819,0.9822,0.9825,0.9834,0.984,0.9846,0.9852,0.9864,0.9871,0.9871,0.9876,0.9873,0.9872,0.9873,0.9894,0.9894,0.9868,0.9868,0.9868,0.9868,0.9868,0.9868,0.9756,0.9756,0.9765,0.9769,0.9778,0.9782,0.9787,0.9793,0.9801,0.9807,0.9812,0.9821,0.9832,0.984,0.9846,0.9849,0.9851,0.9845,0.985,0.9869,0.9872,0.9874,0.9875,0.9846,0.9845,0.9829,0.9829,0.9829]},{"header":{"parameterUnit":"m.s-1","parameterCategory":1,"la1":30.2991,"la2":30.254,"lo1":-89.0895,"lo2":-89.0444,"dy":0.0017,"dx":0.0017,"nx":28,"ny":28,"refTime":"2025-04-08T03:00:00:Z","depth":0,"parameterNumber":3,"parameterNumberName":"V-component_of_WINDS"},"data":[0,0,0,0,0,0,0,0,0,0,0,0,0,0,0,0,0,0,0,0,0,0,0,0,0,0,0,0,0,0,0,0,0,0,0,0,0,0,0,0,0,0,0,0,0,0,0,0,0,0,0,0,0,0,0,0,0,0,-5.3048,-5.3049,0,-5.3233,-5.3235,-5.3237,-5.3172,-5.3167,-5.3163,-5.3159,-5.3346,-5.3355,-5.3363,0,0,0,0,0,0,0,0,0,0,0,0,0,-5.2633,-5.264,-5.3047,-5.305,-5.3052,-5.3233,-5.3235,-5.3238,-5.3172,-5.3167,-5.3162,-5.3157,-5.3343,-5.3354,-5.3364,0,0,0,0,0,0,0,0,0,0,0,0,0,-5.2815,-5.2643,-5.3047,-5.3041,-5.3042,-5.3232,-5.3235,-5.3239,-5.3173,-5.3167,-5.3161,-5.3155,-5.334,-5.3353,-5.3366,-5.3571,0,0,-5.3406,-5.3412,0,0,0,0,0,0,0,0,-5.2805,-5.283,-5.304,-5.3042,-5.3044,-5.3173,-5.3157,-5.335,-5.3175,-5.3124,-5.3159,-5.3152,-5.3293,-5.331,-5.3358,-5.358,-5.3588,-5.3407,-5.3415,-5.3421,-5.3425,0,0,0,0,0,0,0,-5.2792,-5.2822,-5.3121,-5.3043,-5.3045,-5.3028,-5.3047,-5.3194,-5.3241,-5.3128,-5.3123,-5.3146,-5.3293,-5.3346,-5.3362,-5.3591,-5.3407,-5.3419,-5.3427,-5.3432,-5.3991,-5.3997,0,0,0,0,0,0,-5.2779,-5.2812,-5.3115,-5.3126,-5.2907,-5.3041,-5.3062,-5.3138,-5.3239,-5.3249,-5.3151,-5.3143,-5.3326,-5.3347,-5.3368,-5.3617,-5.3421,-5.3433,-5.3441,-5.3984,-5.3992,-5.4,0,0,0,0,0,0,-5.277,-5.2807,-5.3107,-5.2968,-5.3005,-5.3054,-5.314,-5.3145,-5.3197,-5.3257,-5.3265,-5.3197,-5.3322,-5.335,-5.3522,-5.3622,-5.3439,-5.3451,-5.3976,-5.3986,-5.3996,-5.4114,0,0,0,0,0,0,-5.2759,-5.2804,-5.2883,-5.297,-5.3013,-5.3259,-5.3146,-5.3153,-5.322,-5.3211,-5.3302,-5.3311,-5.3319,-5.3502,-5.3535,-5.3637,-5.3462,-5.3967,-5.398,-5.3993,-5.4102,-5.4127,-5.4149,0,0,0,0,0,-5.2744,-5.2908,-5.2888,-5.2925,-5.3113,-5.3265,-5.3289,-5.3297,-5.3229,-5.3309,-5.3347,-5.3308,-5.3606,-5.352,-5.3557,-5.3664,-5.3961,-5.3977,-5.3992,-5.4091,-5.4122,-5.4149,0,0,0,0,0,0,-5.2831,-5.292,-5.2898,-5.3095,-5.3173,-5.3253,-5.3355,-5.3329,-5.3427,-5.3414,-5.3418,-5.3439,-5.3616,-5.3657,-5.356,-5.3868,-5.3773,-5.3796,-5.3836,-5.3866,-5.389,-5.3877,-5.3473,0,0,0,0,0,-5.2873,-5.299,-5.3061,-5.3228,-5.3269,-5.3305,-5.3371,-5.3371,-5.3451,-5.3483,-5.3534,-5.3613,-5.3724,-5.3797,-5.3902,-5.4106,-5.4125,-5.4198,-5.4222,-5.4241,-5.4262,-5.4373,-5.4407,-5.4051,-5.405,-5.405,0,0,-5.2962,-5.3025,-5.3098,-5.3247,-5.3308,-5.3428,-5.3333,-5.3464,-5.3553,-5.3502,-5.3669,-5.3709,-5.3796,-5.3986,-5.4071,-5.4025,-5.4364,-5.4261,-5.4276,-5.4286,-5.4393,-5.4426,-5.4456,-5.4061,-5.4059,-5.4058,0,0,-5.3185,-5.3244,-5.339,-5.3453,-5.3546,-5.3569,-5.3604,-5.3689,-5.3714,-5.388,-5.3845,-5.395,-5.4141,-5.4206,-5.4263,-5.451,-5.4478,-5.4544,-5.467,-5.4778,-5.4806,-5.4831,-5.492,-5.4952,-5.4564,-5.4565,-5.4565,0,-5.3283,-5.3464,-5.3468,-5.3603,-5.367,-5.363,-5.3779,-5.3838,-5.396,-5.4007,-5.3953,-5.4193,-5.4249,-5.4453,-5.4514,-5.4561,-5.4601,-5.4535,-5.4802,-5.4827,-5.485,-5.4935,-5.4968,-5.4572,-5.4571,-5.457,-5.457,0,-5.358,-5.3706,-5.3812,-5.3933,-5.4011,-5.4152,-5.4178,-5.4256,-5.4248,-5.4277,-5.4447,-5.4513,-5.4631,-5.4679,-5.4672,-5.4882,-5.4851,-5.48,-5.4704,-5.4892,-5.4972,-5.5004,-5.4583,-5.458,-5.4578,-5.4576,0,0,-5.3864,-5.3986,-5.4025,-5.4079,-5.4178,-5.4275,-5.4413,-5.4531,-5.4598,-5.4683,-5.4799,-5.4962,-5.4915,-5.4981,-5.498,-5.5076,-5.5268,-5.5013,-5.5015,-5.5059,-5.5504,-5.5543,-5.5581,-5.5246,-5.5252,-5.5257,-5.5497,0,-5.4096,-5.4341,-5.4349,-5.4572,-5.4688,-5.4652,-5.4772,-5.4846,-5.4876,-5.4978,-5.501,-5.5126,-5.5055,-5.5095,-5.5187,-5.5225,-5.5358,-5.5207,-5.5354,-5.5359,-5.5335,-5.5622,-5.5664,-5.5887,-5.5528,-5.5534,-5.5537,0,-5.4399,-5.4496,-5.4731,-5.4814,-5.4863,-5.4971,-5.5079,-5.5178,-5.5259,-5.5274,-5.5348,-5.5333,-5.5474,-5.5372,-5.5565,-5.5463,-5.5523,-5.5551,-5.5559,-5.5574,-5.5461,-5.5646,-5.5959,-5.5993,-5.5586,-5.5583,-5.5579,0,-5.4585,-5.4773,-5.4938,-5.4985,-5.5086,-5.5163,-5.5208,-5.5284,-5.5354,-5.5448,-5.5493,-5.5601,-5.5661,-5.5745,-5.5759,-5.5684,-5.5953,-5.5853,-5.597,-5.597,-5.6029,-5.6026,-5.6357,-5.6066,-5.6065,-5.6065,-5.6064,0,-5.4844,-5.4989,-5.5023,-5.5125,-5.5286,-5.5294,-5.5453,-5.5492,-5.556,-5.5668,-5.5642,-5.5744,-5.5756,-5.5861,-5.5873,-5.6032,-5.6058,-5.6074,-5.6076,-5.6077,-5.6076,-5.6118,-5.6103,-5.6074,-5.6072,-5.607,-5.6068,0,-5.5079,-5.5107,-5.5285,-5.5366,-5.5389,-5.5505,-5.5573,-5.567,-5.5697,-5.5834,-5.5867,-5.5909,-5.6031,-5.6053,-5.6197,-5.6205,-5.6394,-5.6379,-5.6367,-5.6366,-5.6482,-5.6471,-5.6853,-5.6904,-5.6579,-5.6582,-5.6584,0,-5.5243,-5.5354,-5.5447,-5.5519,-5.5568,-5.5683,-5.5754,-5.5765,-5.584,-5.5942,-5.6027,-5.6146,-5.6243,-5.6439,-5.6481,-5.6591,-5.6579,-5.6705,-5.6595,-5.6594,-5.6582,-5.6576,-5.6588,-5.6727,-5.673,-5.6733,-5.6736,0,-5.5532,-5.554,-5.5645,-5.5756,-5.5842,-5.5929,-5.6011,-5.6071,-5.6092,-5.6178,-5.6303,-5.6378,-5.6525,-5.6644,-5.6753,-5.6797,-5.6771,-5.677,-5.6803,-5.6806,-5.6795,-5.6804,-5.6426,-5.6761,-5.6759,-5.6757,-5.6755,-5.6754,-5.5738,-5.5835,-5.5916,-5.6034,-5.6097,-5.6175,-5.627,-5.6309,-5.6414,-5.6536,-5.6535,-5.6672,-5.675,-5.6894,-5.6946,-5.7053,-5.7012,-5.706,-5.7072,-5.7084,-5.7096,-5.6777,-5.7072,-5.7072,-5.7071,-5.707,-5.707,0,-5.6026,-5.6076,-5.6185,-5.6301,-5.6394,-5.6361,-5.645,-5.653,-5.6651,-5.6727,-5.6822,-5.6966,-5.7081,-5.7133,-5.7246,-5.7321,-5.7312,-5.735,-5.7346,-5.7357,-5.7125,-5.7086,-5.7356,-5.7356,-5.7356,-5.7356,-5.7356,-5.7356,-5.6187,-5.6351,-5.6369,-5.6563,-5.6612,-5.6748,-5.6801,-5.6873,-5.6933,-5.7096,-5.7192,-5.7225,-5.7291,-5.7408,-5.7512,-5.7524,-5.7567,-5.7612,-5.7619,-5.7402,-5.7373,-5.7345,-5.7308,-5.7621,-5.7622,-5.7842,-5.7844,-5.7845]}]]